• în Republica Moldova
  • Lista ţărilor
  • Pe 7 zile
  • Temperatura apei
  • Hartă satelitară
  • Meteo pe hartă
  • Widget-uri
  • user-avatar
    Intrare

    Meteo pe oră la Eisenstadt

    Astăzi, 25 Mai, Joi

    Timp Temperatura Precipitaţii Vânt Presiune Umiditate
    00:00 +9°C° 0,2 mm 3 m/s 724 mmHg 91%
    01:00 +9°C° 0 mm 3 m/s 724 mmHg 91%
    02:00 +8°C° 0 mm 3 m/s 724 mmHg 90%
    03:00 +8°C° 0 mm 3 m/s 724 mmHg 90%
    04:00 +7°C° 0 mm 3 m/s 724 mmHg 90%
    05:00 +8°C° 0 mm 4 m/s 724 mmHg 86%
    06:00 +9°C° 0 mm 5 m/s 724 mmHg 82%
    07:00 +10°C° 0 mm 5 m/s 725 mmHg 79%
    08:00 +11°C° 0 mm 6 m/s 725 mmHg 72%
    09:00 +14°C° 0 mm 6 m/s 725 mmHg 66%
    10:00 +15°C° 0 mm 6 m/s 725 mmHg 60%
    11:00 +15°C° 0 mm 6 m/s 725 mmHg 59%
    12:00 +16°C° 0 mm 6 m/s 725 mmHg 58%
    13:00 +17°C° 0 mm 6 m/s 725 mmHg 57%
    14:00 +17°C° 0,1 mm 6 m/s 724 mmHg 58%
    15:00 +17°C° 0,1 mm 6 m/s 724 mmHg 59%
    16:00 +17°C° 0,1 mm 6 m/s 724 mmHg 60%
    17:00 +16°C° 0 mm 5 m/s 724 mmHg 66%
    18:00 +15°C° 0 mm 4 m/s 723 mmHg 72%
    19:00 +13°C° 0 mm 4 m/s 723 mmHg 78%
    20:00 +12°C° 0 mm 3 m/s 724 mmHg 81%
    21:00 +11°C° 0 mm 3 m/s 724 mmHg 84%
    22:00 +10°C° 0 mm 3 m/s 724 mmHg 87%
    23:00 +10°C° 0 mm 3 m/s 724 mmHg 87%

    Mâine, 26 Mai, Vineri

    Timp Temperatura Precipitaţii Vânt Presiune Umiditate
    00:00 +10°C° 0 mm 3 m/s 724 mmHg 87%
    01:00 +10°C° 0 mm 3 m/s 724 mmHg 88%
    02:00 +9°C° 0 mm 3 m/s 724 mmHg 88%
    03:00 +9°C° 0 mm 3 m/s 724 mmHg 89%
    04:00 +9°C° 0 mm 3 m/s 724 mmHg 89%
    05:00 +10°C° 0 mm 3 m/s 724 mmHg 85%
    06:00 +12°C° 0 mm 4 m/s 724 mmHg 81%
    07:00 +13°C° 0 mm 4 m/s 725 mmHg 76%
    08:00 +15°C° 0 mm 4 m/s 725 mmHg 71%
    09:00 +16°C° 0 mm 5 m/s 725 mmHg 66%
    10:00 +17°C° 0 mm 5 m/s 725 mmHg 61%
    11:00 +19°C° 0 mm 5 m/s 725 mmHg 58%
    12:00 +19°C° 0 mm 5 m/s 725 mmHg 56%
    13:00 +20°C° 0 mm 5 m/s 725 mmHg 54%
    14:00 +20°C° 0 mm 5 m/s 724 mmHg 55%
    15:00 +20°C° 0 mm 5 m/s 724 mmHg 56%
    16:00 +20°C° 0 mm 5 m/s 724 mmHg 56%
    17:00 +19°C° 0 mm 4 m/s 724 mmHg 64%
    18:00 +17°C° 0 mm 3 m/s 724 mmHg 71%
    19:00 +16°C° 0 mm 3 m/s 724 mmHg 79%
    20:00 +14°C° 0 mm 3 m/s 724 mmHg 82%
    21:00 +13°C° 0 mm 3 m/s 724 mmHg 85%
    22:00 +12°C° 0 mm 3 m/s 725 mmHg 88%
    23:00 +11°C° 0 mm 3 m/s 725 mmHg 89%

    Poimâine, 27 Mai, Sâmbătă

    Timp Temperatura Precipitaţii Vânt Presiune Umiditate
    00:00 +11°C° 0 mm 3 m/s 725 mmHg 90%
    01:00 +11°C° 0 mm 3 m/s 725 mmHg 90%
    02:00 +11°C° 0 mm 3 m/s 725 mmHg 91%
    03:00 +11°C° 0 mm 3 m/s 725 mmHg 92%
    04:00 +10°C° 0 mm 3 m/s 725 mmHg 92%
    05:00 +12°C° 0 mm 3 m/s 725 mmHg 87%
    06:00 +14°C° 0 mm 3 m/s 726 mmHg 82%
    07:00 +16°C° 0 mm 3 m/s 726 mmHg 77%
    08:00 +18°C° 0 mm 4 m/s 726 mmHg 71%
    09:00 +19°C° 0 mm 4 m/s 727 mmHg 66%
    10:00 +20°C° 0 mm 4 m/s 727 mmHg 60%
    11:00 +21°C° 0 mm 4 m/s 727 mmHg 57%
    12:00 +21°C° 0 mm 4 m/s 727 mmHg 55%
    13:00 +22°C° 0 mm 4 m/s 727 mmHg 52%
    14:00 +22°C° 0 mm 4 m/s 727 mmHg 53%
    15:00 +22°C° 0 mm 4 m/s 727 mmHg 54%
    16:00 +22°C° 0 mm 4 m/s 727 mmHg 55%
    17:00 +20°C° 0 mm 4 m/s 727 mmHg 63%
    18:00 +18°C° 0 mm 3 m/s 727 mmHg 72%
    19:00 +17°C° 0 mm 3 m/s 727 mmHg 80%
    20:00 +15°C° 0 mm 2 m/s 727 mmHg 83%
    21:00 +14°C° 0 mm 2 m/s 727 mmHg 86%
    22:00 +12°C° 0 mm 2 m/s 728 mmHg 89%
    23:00 +12°C° 0 mm 2 m/s 728 mmHg 90%

    28 Mai, Duminică

    Timp Temperatura Precipitaţii Vânt Presiune Umiditate
    00:00 +11°C° 0 mm 1 m/s 728 mmHg 90%
    01:00 +10°C° 0 mm 1 m/s 728 mmHg 91%
    02:00 +10°C° 0 mm 1 m/s 728 mmHg 91%
    03:00 +10°C° 0 mm 1 m/s 728 mmHg 91%
    04:00 +9°C° 0 mm 1 m/s 728 mmHg 91%
    05:00 +12°C° 0 mm 1 m/s 728 mmHg 85%
    06:00 +15°C° 0 mm 1 m/s 729 mmHg 79%
    07:00 +17°C° 0 mm 2 m/s 729 mmHg 73%
    08:00 +19°C° 0 mm 2 m/s 729 mmHg 68%
    09:00 +20°C° 0 mm 2 m/s 729 mmHg 62%
    10:00 +22°C° 0 mm 3 m/s 729 mmHg 57%
    11:00 +22°C° 0 mm 3 m/s 729 mmHg 55%
    12:00 +24°C° 0 mm 3 m/s 729 mmHg 54%
    13:00 +23°C° 0 mm 4 m/s 729 mmHg 52%
    14:00 +23°C° 0 mm 4 m/s 729 mmHg 53%
    15:00 +23°C° 0 mm 4 m/s 728 mmHg 54%
    16:00 +23°C° 0 mm 4 m/s 728 mmHg 55%
    17:00 +22°C° 0 mm 3 m/s 728 mmHg 61%
    18:00 +20°C° 0 mm 3 m/s 728 mmHg 68%
    19:00 +18°C° 0 mm 3 m/s 727 mmHg 75%
    20:00 +17°C° 0 mm 3 m/s 727 mmHg 77%
    21:00 +16°C° 0 mm 3 m/s 727 mmHg 80%
    22:00 +14°C° 0 mm 2 m/s 727 mmHg 82%
    23:00 +14°C° 0 mm 2 m/s 727 mmHg 83%

    29 Mai, Luni

    Timp Temperatura Precipitaţii Vânt Presiune Umiditate
    00:00 +13°C° 0 mm 2 m/s 727 mmHg 84%
    01:00 +13°C° 0 mm 2 m/s 726 mmHg 84%
    02:00 +13°C° 0 mm 2 m/s 726 mmHg 85%
    03:00 +13°C° 0 mm 2 m/s 726 mmHg 86%
    04:00 +12°C° 0 mm 2 m/s 726 mmHg 87%
    05:00 +14°C° 0 mm 2 m/s 726 mmHg 83%
    06:00 +16°C° 0 mm 3 m/s 726 mmHg 78%
    07:00 +18°C° 0 mm 3 m/s 726 mmHg 73%
    08:00 +20°C° 0 mm 3 m/s 726 mmHg 68%
    09:00 +22°C° 0 mm 3 m/s 726 mmHg 63%
    10:00 +24°C° 0 mm 3 m/s 726 mmHg 58%
    11:00 +25°C° 0 mm 4 m/s 725 mmHg 57%
    12:00 +26°C° 0 mm 4 m/s 725 mmHg 55%
    13:00 +26°C° 0 mm 4 m/s 725 mmHg 54%
    14:00 +26°C° 0 mm 4 m/s 724 mmHg 56%
    15:00 +26°C° 0 mm 4 m/s 724 mmHg 57%
    16:00 +26°C° 0 mm 4 m/s 724 mmHg 59%
    17:00 +24°C° 0 mm 3 m/s 723 mmHg 66%
    18:00 +22°C° 0 mm 3 m/s 723 mmHg 73%
    19:00 +20°C° 0 mm 3 m/s 723 mmHg 79%
    20:00 +19°C° 0 mm 2 m/s 723 mmHg 82%
    21:00 +17°C° 0 mm 2 m/s 723 mmHg 85%
    22:00 +16°C° 0 mm 2 m/s 722 mmHg 88%
    23:00 +15°C° 0 mm 2 m/s 722 mmHg 90%

    30 Mai, Marţi

    Timp Temperatura Precipitaţii Vânt Presiune Umiditate
    00:00 +15°C° 0 mm 2 m/s 722 mmHg 91%
    01:00 +15°C° 0 mm 2 m/s 722 mmHg 92%
    02:00 +14°C° 0 mm 2 m/s 721 mmHg 92%
    03:00 +14°C° 0 mm 2 m/s 721 mmHg 92%
    04:00 +13°C° 0 mm 1 m/s 721 mmHg 92%
    05:00 +16°C° 0 mm 1 m/s 721 mmHg 87%
    06:00 +19°C° 0 mm 1 m/s 722 mmHg 81%
    07:00 +21°C° 0 mm 1 m/s 722 mmHg 76%
    08:00 +23°C° 0 mm 1 m/s 722 mmHg 71%
    09:00 +24°C° 0 mm 2 m/s 722 mmHg 65%
    10:00 +26°C° 0 mm 2 m/s 722 mmHg 60%
    11:00 +26°C° 0 mm 2 m/s 722 mmHg 58%
    12:00 +27°C° 0 mm 3 m/s 722 mmHg 56%
    13:00 +28°C° 0 mm 3 m/s 722 mmHg 54%
    14:00 +28°C° 0 mm 3 m/s 721 mmHg 55%
    15:00 +28°C° 0 mm 3 m/s 721 mmHg 56%
    16:00 +28°C° 0 mm 3 m/s 721 mmHg 57%
    17:00 +26°C° 0,1 mm 3 m/s 721 mmHg 64%
    18:00 +25°C° 0,1 mm 2 m/s 721 mmHg 72%
    19:00 +23°C° 0,1 mm 2 m/s 721 mmHg 79%
    20:00 +21°C° 0 mm 2 m/s 721 mmHg 82%
    21:00 +19°C° 0 mm 2 m/s 721 mmHg 85%
    22:00 +18°C° 0 mm 2 m/s 721 mmHg 88%
    23:00 +17°C° 0 mm 2 m/s 721 mmHg 88%
    Arată mai mult